Palmer, AK

9:09 AM AKST on December 02, 2016 (GMT -0900)
Palmer Municipal

Weather History for PAAQ - November, 2013

Change the Weather History Date:

Monday, November 18, 2013

  Actual Average Record
Temperature  
Mean Temperature -1 °F -  
Max Temperature 5 °F 25 °F 50 °F (1964)
Min Temperature -7 °F 11 °F -13 °F (1969)
Degree Days  
Heating Degree Days 66    
Moisture  
Dew Point -6 °F    
Average Humidity 79    
Maximum Humidity 87    
Minimum Humidity 70    
Precipitation  
Precipitation 0.00 in - - ()
Sea Level Pressure  
Sea Level Pressure 30.19 in    
Wind  
Wind Speed 2 mph (ENE)    
Max Wind Speed 7 mph    
Max Gust Speed -    
Visibility 10 miles    
Events      
Averages and records for this station are not official NWS values.
T = Trace of Precipitation, MM = Missing Value Source: NWS Daily Summary

Daily Weather History Graph

Daily Weather History Graph

Search for Another Location

Airport or City:

Trip Planner

Search our weather history database for the weather conditions in past years. The results will help you decide how hot, cold, wet, or windy it might be!

Date:

Astronomy

Nov. 18, 2013 Rise Set
Actual Time 9:14 AM AKST 4:08 PM AKST
Civil Twilight 8:20 AM AKST 5:02 PM AKST
Nautical Twilight 7:24 AM AKST 5:57 PM AKST
Astronomical Twilight 6:32 AM AKST 6:49 PM AKST
Moon 5:11 PM AKST (11/18) 10:17 AM AKST (11/18)
Length of Visible Light 8h 41m
Length of Day
6h 53m
Full, 98% of the Moon is Illuminated
Nov 18
Full
Nov 25
Last Quarter
Dec 2
New
Dec 9
First Quarter
Dec 17
Full

Hourly Weather History & Observations

Time (AKST) Temp. Windchill Dew Point Humidity Pressure Visibility Wind Dir Wind Speed Gust Speed Precip Events Conditions
12:53 AM 5.0 °F -6.9 °F -2.0 °F 73% 30.18 in 10.0 mi Variable 6.9 mph - N/A   Clear
1:53 AM 5.0 °F -5.6 °F -2.0 °F 73% 30.18 in 10.0 mi North 5.8 mph - N/A   Clear
2:53 AM 1.9 °F - -5.1 °F 72% 30.18 in 10.0 mi Calm Calm - N/A   Clear
3:53 AM -0.0 °F - -4.0 °F 83% 30.19 in 10.0 mi Calm Calm - N/A   Clear
4:53 AM 1.9 °F - -2.9 °F 80% 30.19 in 10.0 mi Calm Calm - N/A   Clear
5:53 AM -2.0 °F - -6.0 °F 83% 30.19 in 10.0 mi Calm Calm - N/A   Clear
6:53 AM -4.0 °F -14.6 °F -7.1 °F 87% 30.19 in 10.0 mi ENE 4.6 mph - N/A   Clear
7:53 AM -2.9 °F - -7.1 °F 82% 30.19 in 10.0 mi Calm Calm - N/A   Clear
8:53 AM -4.0 °F - -8.0 °F 83% 30.19 in 10.0 mi Calm Calm - N/A   Clear
9:53 AM -4.0 °F - -8.0 °F 83% 30.20 in 10.0 mi Calm Calm - N/A   Clear
10:53 AM -0.0 °F - -4.0 °F 83% 30.21 in 10.0 mi Calm Calm - N/A   Clear
11:53 AM 1.0 °F - -4.0 °F 79% 30.20 in 10.0 mi Calm Calm - N/A   Clear
12:53 PM 3.0 °F - -4.0 °F 73% 30.20 in 10.0 mi Calm Calm - N/A   Clear
1:53 PM 3.9 °F - -4.0 °F 70% 30.20 in 10.0 mi Calm Calm - N/A   Clear
2:53 PM 3.9 °F - -4.0 °F 70% 30.19 in 10.0 mi Calm Calm - N/A   Clear
3:53 PM 1.9 °F -5.6 °F -4.0 °F 76% 30.19 in 10.0 mi SE 3.5 mph - N/A   Clear
4:53 PM 1.0 °F - -2.9 °F 83% 30.19 in 10.0 mi Calm Calm - N/A   Clear
5:53 PM -0.9 °F - -6.0 °F 79% 30.18 in 10.0 mi Calm Calm - N/A   Clear
6:53 PM -5.1 °F - -9.9 °F 80% 30.18 in 10.0 mi Calm Calm - N/A   Clear
7:53 PM -4.0 °F - -9.0 °F 79% 30.18 in 10.0 mi Calm Calm - N/A   Clear
8:53 PM -6.0 °F - -9.9 °F 83% 30.18 in 10.0 mi Calm Calm - N/A   Clear
9:53 PM -7.1 °F -15.9 °F -11.9 °F 79% 30.17 in 10.0 mi Variable 3.5 mph - N/A   Clear
10:53 PM -5.1 °F - -9.9 °F 80% 30.17 in 10.0 mi Calm Calm - N/A   Partly Cloudy
11:53 PM -5.1 °F - -9.9 °F 80% 30.17 in 10.0 mi Calm Calm - N/A   Clear